Flag for Germany Weather past 2 weeks in Amberg, Bavaria, Germany

Now
55 °F

Overcast.


Feels Like: 55 °F
Forecast: 57 / 69 °F
Wind: No wind

Location: Hohenfels

Current Time: Sep 19, 2014 at 4:55:12 AM

Latest Report: Sep 19, 2014 at 3:58 AM


Visibility: N/A

Pressure: 29.94 "Hg

Humidity: 100%

Dew point: 55 °F

Location of AmbergLocation

Historic Weather in Amberg — Graph

°F

Amberg temperature yesterday

Maximum temperature yesterday: 72 °F (at 2:58 PM)
Minimum temperature yesterday: 46 °F (at 5:58 AM)
Average temperature yesterday: 58 °F

Past Weeks' High & Low Weather Summary

 TemperatureHumidityPressure
High75 °F (Sep 6, 2:58 PM)100% (Sep 4, 4:58 AM)30.15 "Hg (Sep 4, 4:58 AM)
Low46 °F (Sep 17, 6:58 AM)50% (Sep 9, 4:58 PM)29.88 "Hg (Sep 6, 4:58 PM)
Average60 °F88%30.01 "Hg
* Reported Sep 4 3:58 AM — Sep 19 3:58 AM, Amberg, Weather by CustomWeather, © 2014

Note: Actual official high and low records may vary slightly from our data, if they occured in-between our weather recording intervals... More about our weather records

Advertising

Amberg weather history for previous 24 hours

 ConditionsComfort  
Time TempWeatherWind HumidityBarometerVisibility
3:58 AM
Sep 19
55 °FOvercast.No wind100%29.94 "HgN/A
2:58 AM55 °FPassing clouds.No wind100%29.94 "HgN/A
1:58 AM57 °FOvercast.No wind94%29.95 "HgN/A
12:58 AM57 °FOvercast.2 mph94%29.96 "HgN/A
11:58 PM
Sep 18
57 °FPassing clouds.No wind94%29.96 "HgN/A
10:58 PM57 °FClear.2 mph94%29.98 "HgN/A
9:58 PM57 °FPassing clouds.3 mph94%29.97 "HgN/A
8:58 PM59 °FClear.3 mph94%29.96 "HgN/A
7:58 PM61 °FOvercast.No wind88%29.96 "HgN/A
4:58 PM72 °FSunny.6 mph57%29.92 "HgN/A
3:58 PM72 °FSunny.5 mph61%29.92 "HgN/A
2:58 PM72 °FSunny.7 mph57%29.93 "HgN/A
1:58 PM70 °FSunny.3 mph60%29.93 "HgN/A
12:58 PM66 °FPassing clouds.8 mph64%29.95 "HgN/A
11:58 AM64 °FSunny.6 mph68%29.95 "HgN/A
10:58 AM61 °FSunny.6 mph77%29.96 "HgN/A
9:58 AM57 °FSunny.3 mph88%29.97 "HgN/A
8:58 AM54 °FPassing clouds.No wind94%29.95 "HgN/A
7:58 AM50 °FPassing clouds.No wind94%29.97 "HgN/A
6:58 AM46 °FClear.No wind100%29.94 "HgN/A
5:58 AM46 °FClear.1 mph100%29.94 "HgN/A
4:58 AM48 °FFog.No wind100%29.92 "Hg6 mi
Weather by CustomWeather, © 2014

See weather overviewHow to use our weather pages